TimeMDT,TemperatureF,Dew PointF,Humidity,Sea Level PressureIn,VisibilityMPH,Wind Direction,Wind SpeedMPH,Gust SpeedMPH,PrecipitationIn,Events,Conditions,WindDirDegrees,DateUTC
12:15 AM,52.7,30.7,43,30.01,10.0,SW,3.5,-,N/A,,Clear,230,2012-10-23 06:15:00
12:35 AM,51.1,30.7,46,30.02,10.0,SW,3.5,-,N/A,,Clear,230,2012-10-23 06:35:00
1:15 AM,52.5,30.7,43,30.02,10.0,South,4.6,-,N/A,,Clear,190,2012-10-23 07:15:00
1:35 AM,51.3,30.7,45,30.02,10.0,South,3.5,-,N/A,,Clear,190,2012-10-23 07:35:00
1:55 AM,50.9,30.9,46,30.02,10.0,SSW,5.8,-,N/A,,Clear,200,2012-10-23 07:55:00
2:15 AM,50.5,31.1,47,30.02,10.0,SW,5.8,-,N/A,,Clear,220,2012-10-23 08:15:00
2:35 AM,50.2,30.9,48,30.02,10.0,SSW,3.5,-,N/A,,Clear,200,2012-10-23 08:35:00
3:15 AM,49.8,30.6,48,30.02,10.0,South,4.6,-,N/A,,Clear,190,2012-10-23 09:15:00
3:35 AM,48.0,30.2,50,30.01,10.0,South,4.6,-,N/A,,Clear,170,2012-10-23 09:35:00
3:55 AM,47.3,30.0,51,30.00,10.0,SSW,4.6,-,N/A,,Clear,200,2012-10-23 09:55:00
4:15 AM,47.7,30.4,51,30.01,10.0,WSW,3.5,-,N/A,,Clear,250,2012-10-23 10:15:00
5:15 AM,45.7,30.2,55,30.01,10.0,WSW,5.8,-,N/A,,Clear,250,2012-10-23 11:15:00
5:35 AM,47.1,30.2,52,30.02,10.0,SW,4.6,-,N/A,,Clear,230,2012-10-23 11:35:00
5:55 AM,45.5,29.8,54,30.02,10.0,WSW,4.6,-,N/A,,Clear,240,2012-10-23 11:55:00
6:15 AM,46.4,30.0,53,30.03,10.0,Calm,Calm,-,N/A,,Clear,0,2012-10-23 12:15:00
6:35 AM,44.6,30.2,57,30.03,10.0,Calm,Calm,-,N/A,,Clear,0,2012-10-23 12:35:00
6:55 AM,44.4,29.7,56,30.04,10.0,Calm,Calm,-,N/A,,Clear,0,2012-10-23 12:55:00
7:15 AM,43.9,29.8,58,30.04,10.0,West,5.8,-,N/A,,Clear,270,2012-10-23 13:15:00
7:35 AM,45.3,29.8,55,30.04,10.0,WSW,4.6,-,N/A,,Clear,250,2012-10-23 13:35:00
7:55 AM,47.1,30.7,53,30.05,10.0,NNW,3.5,-,N/A,,Clear,340,2012-10-23 13:55:00
8:15 AM,50.0,31.8,50,30.06,10.0,Calm,Calm,-,N/A,,Clear,0,2012-10-23 14:15:00
8:35 AM,50.2,31.8,49,30.07,10.0,NNW,5.8,-,N/A,,Clear,340,2012-10-23 14:35:00
8:55 AM,52.2,32.0,46,30.08,10.0,NNW,3.5,-,N/A,,Clear,340,2012-10-23 14:55:00
9:15 AM,55.2,32.0,41,30.08,10.0,NNW,4.6,-,N/A,,Clear,340,2012-10-23 15:15:00
9:35 AM,58.5,31.8,37,30.07,10.0,North,3.5,-,N/A,,Clear,360,2012-10-23 15:35:00
9:55 AM,60.4,32.0,34,30.07,10.0,Calm,Calm,-,N/A,,Clear,0,2012-10-23 15:55:00
10:35 AM,63.3,32.0,31,30.06,10.0,Calm,Calm,-,N/A,,Clear,0,2012-10-23 16:35:00
10:55 AM,65.8,32.2,29,30.06,10.0,SSE,3.5,-,N/A,,Clear,150,2012-10-23 16:55:00
11:15 AM,67.8,32.4,27,30.05,10.0,SSE,4.6,-,N/A,,Clear,150,2012-10-23 17:15:00
11:35 AM,69.1,32.0,25,30.05,10.0,SSE,4.6,-,N/A,,Clear,150,2012-10-23 17:35:00
11:55 AM,70.3,32.5,25,30.04,10.0,SSE,4.6,-,N/A,,Clear,160,2012-10-23 17:55:00
12:15 PM,71.2,32.2,24,30.04,10.0,SE,4.6,-,N/A,,Clear,130,2012-10-23 18:15:00
12:35 PM,71.8,32.2,23,30.04,10.0,SSE,4.6,-,N/A,,Clear,150,2012-10-23 18:35:00
12:55 PM,74.1,32.2,21,30.02,10.0,SE,5.8,-,N/A,,Clear,130,2012-10-23 18:55:00
1:15 PM,74.8,32.4,21,30.01,10.0,South,3.5,-,N/A,,Clear,170,2012-10-23 19:15:00
1:35 PM,76.1,32.5,20,29.99,10.0,East,5.8,-,N/A,,Clear,100,2012-10-23 19:35:00
1:55 PM,77.0,32.4,20,29.98,10.0,SSE,6.9,-,N/A,,Clear,150,2012-10-23 19:55:00
2:15 PM,79.9,31.6,17,29.97,10.0,SE,10.4,-,N/A,,Clear,140,2012-10-23 20:15:00
2:35 PM,81.7,30.6,16,29.95,10.0,South,8.1,17.3,N/A,,Clear,180,2012-10-23 20:35:00
2:55 PM,82.4,30.6,15,29.94,10.0,SE,15.0,-,N/A,,Clear,140,2012-10-23 20:55:00
3:15 PM,82.8,30.2,15,29.94,10.0,SSE,13.8,24.2,N/A,,Clear,160,2012-10-23 21:15:00
3:35 PM,82.9,30.2,15,29.93,10.0,SSE,16.1,21.9,N/A,,Clear,150,2012-10-23 21:35:00
3:55 PM,84.4,28.9,13,29.93,10.0,SSW,15.0,19.6,N/A,,Clear,200,2012-10-23 21:55:00
4:15 PM,83.3,29.1,14,29.93,10.0,South,17.3,24.2,N/A,,Clear,190,2012-10-23 22:15:00
4:35 PM,82.2,29.3,15,29.93,10.0,South,13.8,20.7,N/A,,Clear,190,2012-10-23 22:35:00
4:55 PM,81.1,28.8,15,29.93,10.0,South,13.8,21.9,N/A,,Clear,190,2012-10-23 22:55:00
5:15 PM,80.1,28.4,15,29.93,10.0,SSW,15.0,-,N/A,,Clear,200,2012-10-23 23:15:00
5:35 PM,79.3,28.9,16,29.93,10.0,South,12.7,-,N/A,,Clear,180,2012-10-23 23:35:00
5:55 PM,78.1,29.5,17,29.93,10.0,South,13.8,19.6,N/A,,Clear,190,2012-10-23 23:55:00
6:15 PM,77.0,28.9,17,29.93,10.0,South,12.7,-,N/A,,Clear,180,2012-10-24 00:15:00
6:35 PM,74.3,29.8,19,29.93,10.0,SSE,5.8,-,N/A,,Clear,160,2012-10-24 00:35:00
6:55 PM,70.9,31.1,23,29.94,10.0,South,6.9,-,N/A,,Clear,190,2012-10-24 00:55:00
7:15 PM,72.7,28.4,19,29.94,10.0,South,9.2,-,N/A,,Clear,190,2012-10-24 01:15:00
7:35 PM,69.8,28.4,21,29.95,10.0,SW,9.2,-,N/A,,Clear,220,2012-10-24 01:35:00
7:55 PM,71.6,28.2,20,29.95,10.0,SSW,8.1,-,N/A,,Clear,200,2012-10-24 01:55:00
8:35 PM,68.5,27.5,22,29.95,10.0,SSW,6.9,-,N/A,,Clear,210,2012-10-24 02:35:00
8:55 PM,64.9,27.1,24,29.95,10.0,South,6.9,-,N/A,,Clear,190,2012-10-24 02:55:00
9:15 PM,64.8,26.8,24,29.96,10.0,South,6.9,-,N/A,,Clear,180,2012-10-24 03:15:00
9:35 PM,66.2,27.0,23,29.96,10.0,SSE,10.4,-,N/A,,Clear,160,2012-10-24 03:35:00
9:55 PM,67.8,24.4,19,29.96,10.0,South,10.4,-,N/A,,Clear,190,2012-10-24 03:55:00
10:15 PM,65.1,24.1,21,29.97,10.0,SSW,6.9,-,N/A,,Clear,200,2012-10-24 04:15:00
10:35 PM,65.8,23.7,20,29.97,10.0,SSE,8.1,-,N/A,,Clear,150,2012-10-24 04:35:00
10:55 PM,64.0,24.3,22,29.97,10.0,South,6.9,-,N/A,,Clear,180,2012-10-24 04:55:00
11:15 PM,65.1,24.6,22,29.97,10.0,South,6.9,-,N/A,,Clear,170,2012-10-24 05:15:00
11:35 PM,66.2,23.7,20,29.97,10.0,South,9.2,-,N/A,,Clear,180,2012-10-24 05:35:00
11:55 PM,64.4,24.6,22,29.97,10.0,SSE,6.9,-,N/A,,Clear,150,2012-10-24 05:55:00